Fort Indiantown Gap, PA

9:19 PM EDT on July 20, 2017 (GMT -0400)
Muir Army Air Field

Weather History for KMUI - November, 2011

Change the Weather History Date:

Saturday, November 26, 2011

  Actual Average Record
Temperature  
Mean Temperature 46 °F -  
Max Temperature 61 °F 47 °F 69 °F (1999)
Min Temperature 30 °F 34 °F 24 °F (2012)
Degree Days  
Heating Degree Days 20    
Moisture  
Dew Point 36 °F    
Average Humidity 79    
Maximum Humidity 99    
Minimum Humidity 39    
Precipitation  
Precipitation 0.00 in - - ()
Sea Level Pressure  
Sea Level Pressure 30.22 in    
Wind  
Wind Speed 0 mph (SW)    
Max Wind Speed 4 mph    
Max Gust Speed -    
Visibility 10 miles    
Events      
Averages and records for this station are not official NWS values.
T = Trace of Precipitation, MM = Missing Value Source: NWS Daily Summary

Daily Weather History Graph

Daily Weather History Graph

Search for Another Location

Airport or City:

Trip Planner

Search our weather history database for the weather conditions in past years. The results will help you decide how hot, cold, wet, or windy it might be!

Date:

Astronomy

Nov. 26, 2011 Rise Set
Actual Time 7:04 AM EST 4:42 PM EST
Civil Twilight 6:34 AM EST 5:12 PM EST
Nautical Twilight 6:01 AM EST 5:45 PM EST
Astronomical Twilight 5:28 AM EST 6:18 PM EST
Moon 8:33 AM EST (11/26) 6:10 PM EST (11/26)
Length of Visible Light 10h 37m
Length of Day
9h 37m
Waxing Crescent, 3% of the Moon is Illuminated
Nov 26
Waxing Crescent
Dec 2
First Quarter
Dec 10
Full
Dec 17
Last Quarter
Dec 24
New

Hourly Weather History & Observations

Time (EST) Temp. Dew Point Humidity Pressure Visibility Wind Dir Wind Speed Gust Speed Precip Events Conditions
12:55 AM 33.3 °F 32.7 °F 98% 30.19 in 10.0 mi Calm Calm - N/A   Clear
1:55 AM 31.8 °F 31.3 °F 98% 30.18 in 10.0 mi Calm Calm - N/A   Clear
2:55 AM 32.0 °F 31.5 °F 98% 30.19 in 10.0 mi Calm Calm - N/A   Clear
3:55 AM 31.5 °F 30.9 °F 98% 30.20 in 10.0 mi Calm Calm - N/A   Clear
4:55 AM 30.7 °F 30.2 °F 98% 30.21 in 10.0 mi Calm Calm - N/A   Clear
5:55 AM 31.5 °F 30.9 °F 98% 30.22 in 10.0 mi Calm Calm - N/A   Clear
6:55 AM 30.7 °F 30.2 °F 98% 30.23 in 10.0 mi Calm Calm - N/A   Clear
7:55 AM 32.0 °F 31.6 °F 99% 30.26 in 10.0 mi Calm Calm - N/A   Clear
8:55 AM 35.8 °F 35.2 °F 98% 30.26 in 10.0 mi Calm Calm - N/A   Clear
9:55 AM 44.8 °F 39.9 °F 83% 30.26 in 10.0 mi Calm Calm - N/A   Clear
10:55 AM 52.2 °F 37.8 °F 58% 30.26 in 10.0 mi SW 3.5 mph - N/A   Clear
11:55 AM 57.9 °F 35.2 °F 43% 30.24 in 10.0 mi WSW 3.5 mph - N/A   Clear
12:55 PM 60.3 °F 35.2 °F 39% 30.22 in 10.0 mi Calm Calm - N/A   Partly Cloudy
1:55 PM 61.0 °F 36.1 °F 40% 30.21 in 10.0 mi Calm Calm - N/A   Partly Cloudy
2:55 PM 58.5 °F 35.2 °F 42% 30.21 in 10.0 mi SW 3.5 mph - N/A   Partly Cloudy
3:55 PM 57.6 °F 34.5 °F 42% 30.21 in 10.0 mi Calm Calm - N/A   Partly Cloudy
4:55 PM 52.7 °F 39.7 °F 61% 30.21 in 10.0 mi Calm Calm - N/A   Scattered Clouds
5:55 PM 50.5 °F 40.6 °F 69% 30.22 in 10.0 mi Calm Calm - N/A   Clear
6:55 PM 47.1 °F 43.3 °F 87% 30.22 in 10.0 mi Calm Calm - N/A   Clear
7:55 PM 47.5 °F 41.9 °F 81% 30.22 in 10.0 mi Calm Calm - N/A   Clear
8:55 PM 46.9 °F 40.6 °F 79% 30.22 in 10.0 mi Calm Calm - N/A   Clear
9:55 PM 46.0 °F 41.5 °F 84% 30.21 in 10.0 mi Calm Calm - N/A   Clear
10:55 PM 42.1 °F 41.4 °F 97% 30.20 in 10.0 mi Calm Calm - N/A   Clear
11:55 PM 40.8 °F 40.1 °F 97% 30.18 in 10.0 mi Calm Calm - N/A   Clear